This is the latest recevied weather packets stored in our database for station/object PU5BHV. If no packets are shown the sender has not sent any weather packets the latest 10 day(s).
| Time | Temp. | Humidity | Pressure | Rain* | Wind** | Luminosity | Snow |
|---|---|---|---|---|---|---|---|
| 1778090369 | 30.56° C | 66% | 1016.6 hPa | 0 mm | - | 369 W/m² | - |
| 1778090066 | 30.56° C | 67% | 1016.7 hPa | 0 mm | - | 364 W/m² | - |
| 1778089763 | 31.11° C | 68% | 1016.7 hPa | 0 mm | - | 347 W/m² | - |
| 1778089460 | 32.22° C | 60% | 1016.5 hPa | 0 mm | - | 363 W/m² | - |
| 1778089157 | 31.67° C | 61% | 1016.4 hPa | 0 mm | - | 397 W/m² | - |
| 1778088854 | 31.67° C | 64% | 1016.7 hPa | 0 mm | - | 438 W/m² | - |
| 1778088551 | 31.67° C | 63% | 1016.6 hPa | 0 mm | - | 445 W/m² | - |
| 1778088248 | 31.67° C | 65% | 1016.7 hPa | 0 mm | - | 436 W/m² | - |
| 1778087945 | 32.22° C | 64% | 1016.8 hPa | 0 mm | - | 462 W/m² | - |
| 1778087642 | 32.22° C | 61% | 1016.8 hPa | 0 mm | - | 448 W/m² | - |
| 1778087340 | 31.67° C | 64% | 1017 hPa | 0 mm | - | 445 W/m² | - |
| 1778087036 | 31.11° C | 64% | 1017.3 hPa | 0 mm | - | 389 W/m² | - |
| 1778086735 | 31.11° C | 66% | 1017.1 hPa | 0 mm | - | 436 W/m² | - |
| 1778086433 | 30.56° C | 67% | 1017.3 hPa | 0 mm | - | 498 W/m² | - |
| 1778086129 | 30.56° C | 68% | 1017.4 hPa | 0 mm | - | 477 W/m² | - |
| 1778085825 | 30.56° C | 67% | 1017.5 hPa | 0 mm | - | 444 W/m² | - |
| 1778085524 | 30° C | 70% | 1017.6 hPa | 0 mm | - | 519 W/m² | - |
| 1778085218 | 30° C | 69% | 1017.6 hPa | 0 mm | - | 525 W/m² | - |
| 1778084913 | 29.44° C | 70% | 1018 hPa | 0 mm | - | 521 W/m² | - |
| 1778084612 | 30° C | 72% | 1017.9 hPa | 0 mm | - | 475 W/m² | - |
| 1778084309 | 30° C | 72% | 1018.2 hPa | 0 mm | - | 508 W/m² | - |
| 1778084006 | 29.44° C | 71% | 1018.2 hPa | 0 mm | - | 549 W/m² | - |
| 1778083704 | 28.89° C | 71% | 1018.3 hPa | 0 mm | - | 532 W/m² | - |
| 1778083400 | 28.89° C | 75% | 1018.5 hPa | 0 mm | - | 535 W/m² | - |
| 1778083099 | 28.89° C | 73% | 1018.7 hPa | 0 mm | - | 560 W/m² | - |
* Rain latest hour (hover to see other rain measurements)
** Current wind speed in m/s (hover to see current wind gust speed)